[[{"header":{"parameterUnit":"m.s-1","parameterCategory":1,"la1":30.2991,"la2":30.254,"lo1":-89.0895,"lo2":-89.0444,"dy":0.0017,"dx":0.0017,"nx":28,"ny":28,"refTime":"2024-05-10T09:00:00:Z","depth":0,"parameterNumber":2,"parameterNumberName":"U-component_of_WINDS"},"data":[0,0,0,0,0,0,0,0,0,0,0,0,0,0,0,0,0,0,0,0,0,0,0,0,0,0,0,0,0,0,0,0,0,0,0,0,0,0,0,0,0,0,0,0,0,0,0,0,0,0,0,0,0,0,0,0,0,0,-2.8092,-2.8093,0,-2.8142,-2.8142,-2.8143,-2.8043,-2.804,-2.8036,-2.8033,-2.8086,-2.809,-2.8094,0,0,0,0,0,0,0,0,0,0,0,0,0,-2.7911,-2.7915,-2.8092,-2.8093,-2.8093,-2.8142,-2.8142,-2.8143,-2.8043,-2.8039,-2.8035,-2.8032,-2.8084,-2.8089,-2.8095,0,0,0,0,0,0,0,0,0,0,0,0,0,-2.7978,-2.7916,-2.8092,-2.8049,-2.8046,-2.8142,-2.8142,-2.8143,-2.8044,-2.8039,-2.8034,-2.803,-2.8082,-2.8089,-2.8095,-2.8235,0,0,-2.8116,-2.8119,0,0,0,0,0,0,0,0,-2.7975,-2.7985,-2.8055,-2.8053,-2.8049,-2.8081,-2.8098,-2.8174,-2.8045,-2.8045,-2.8033,-2.8027,-2.8088,-2.8094,-2.8114,-2.8238,-2.824,-2.8116,-2.8121,-2.8123,-2.8125,0,0,0,0,0,0,0,-2.797,-2.7982,-2.8112,-2.8056,-2.8053,-2.8028,-2.8032,-2.8112,-2.8094,-2.8045,-2.8037,-2.8045,-2.8086,-2.8108,-2.8115,-2.8241,-2.8116,-2.8122,-2.8126,-2.8129,-2.8481,-2.8486,0,0,0,0,0,0,-2.7971,-2.7979,-2.811,-2.8113,-2.7999,-2.8035,-2.804,-2.8076,-2.8092,-2.809,-2.8049,-2.804,-2.8099,-2.8107,-2.8116,-2.8281,-2.8123,-2.813,-2.8133,-2.8476,-2.8482,-2.8488,0,0,0,0,0,0,-2.7967,-2.7983,-2.8108,-2.8044,-2.8058,-2.8043,-2.8085,-2.8079,-2.8102,-2.8096,-2.8092,-2.8075,-2.8095,-2.8107,-2.8206,-2.8282,-2.8133,-2.8139,-2.8469,-2.8478,-2.8485,-2.8613,0,0,0,0,0,0,-2.7962,-2.7983,-2.8036,-2.8046,-2.8062,-2.8198,-2.8089,-2.8084,-2.8113,-2.8102,-2.8119,-2.8118,-2.8092,-2.8197,-2.8213,-2.8288,-2.8144,-2.8462,-2.8473,-2.8482,-2.8602,-2.8624,-2.8643,0,0,0,0,0,-2.7956,-2.807,-2.8039,-2.8055,-2.8128,-2.8202,-2.8211,-2.818,-2.812,-2.8173,-2.8169,-2.8117,-2.827,-2.8208,-2.8225,-2.8304,-2.8458,-2.847,-2.8482,-2.8593,-2.862,-2.8643,0,0,0,0,0,0,-2.807,-2.8071,-2.8036,-2.8157,-2.818,-2.8185,-2.8252,-2.821,-2.8251,-2.8239,-2.8198,-2.8203,-2.8311,-2.8316,-2.8247,-2.8439,-2.8354,-2.837,-2.8432,-2.8458,-2.8479,-2.8476,-2.8149,0,0,0,0,0,-2.8109,-2.8169,-2.8166,-2.8273,-2.8286,-2.8267,-2.8298,-2.8272,-2.8295,-2.8304,-2.8307,-2.8332,-2.8385,-2.8421,-2.847,-2.8601,-2.8604,-2.8664,-2.8684,-2.8701,-2.8717,-2.8786,-2.8813,-2.8527,-2.8527,-2.8527,0,0,-2.819,-2.8198,-2.8239,-2.8296,-2.8311,-2.8374,-2.8276,-2.8348,-2.8394,-2.8315,-2.841,-2.8412,-2.8437,-2.8553,-2.8604,-2.8561,-2.8796,-2.8717,-2.873,-2.8736,-2.8802,-2.8829,-2.8853,-2.8535,-2.8534,-2.8533,0,0,-2.8372,-2.8383,-2.8474,-2.849,-2.8514,-2.85,-2.8522,-2.8533,-2.8532,-2.8625,-2.8567,-2.8622,-2.8715,-2.8734,-2.8757,-2.8944,-2.8898,-2.8961,-2.907,-2.9139,-2.9161,-2.9181,-2.9249,-2.9274,-2.8975,-2.8975,-2.8976,0,-2.8471,-2.8564,-2.8525,-2.8601,-2.8628,-2.8557,-2.8649,-2.8667,-2.8706,-2.8726,-2.8677,-2.8791,-2.8803,-2.8923,-2.8968,-2.8988,-2.9012,-2.896,-2.9161,-2.918,-2.9198,-2.9263,-2.9288,-2.8983,-2.8982,-2.8981,-2.8981,0,-2.8684,-2.8749,-2.8819,-2.8858,-2.8892,-2.8976,-2.895,-2.899,-2.8959,-2.8951,-2.9047,-2.9057,-2.9108,-2.9133,-2.9105,-2.9249,-2.9222,-2.9168,-2.9081,-2.9234,-2.9294,-2.9318,-2.8994,-2.8991,-2.8989,-2.8987,0,0,-2.8941,-2.8956,-2.8983,-2.8999,-2.9019,-2.9069,-2.9148,-2.9196,-2.9232,-2.926,-2.9326,-2.9405,-2.9355,-2.938,-2.9353,-2.9413,-2.9561,-2.9351,-2.9351,-2.9391,-2.9722,-2.9764,-2.9793,-2.953,-2.9534,-2.9538,-2.972,0,-2.9122,-2.9259,-2.9226,-2.9362,-2.9422,-2.9355,-2.9423,-2.9443,-2.9437,-2.9487,-2.9479,-2.9537,-2.9465,-2.948,-2.9536,-2.9531,-2.9627,-2.9517,-2.9592,-2.9595,-2.959,-2.9824,-2.9869,-3.0041,-2.9743,-2.9747,-2.975,0,-2.9352,-2.9389,-2.953,-2.954,-2.9564,-2.9627,-2.9668,-2.9716,-2.9736,-2.9727,-2.9755,-2.9716,-2.9794,-2.9705,-2.9813,-2.9739,-2.9766,-2.9768,-2.9774,-2.9782,-2.9684,-2.984,-3.0095,-3.0122,-2.9786,-2.9783,-2.9781,0,-2.9527,-2.9612,-2.9707,-2.9723,-2.9736,-2.9782,-2.979,-2.9805,-2.9836,-2.9872,-2.9891,-2.9936,-2.9961,-2.9996,-2.9969,-2.9907,-3.0082,-2.999,-3.0078,-3.0079,-3.012,-3.0118,-3.0385,-3.0135,-3.0134,-3.0134,-3.0133,0,-2.9734,-2.9824,-2.9786,-2.9845,-2.9943,-2.9904,-3.0002,-3.0002,-3.0016,-3.0074,-3.0018,-3.0074,-3.0034,-3.0086,-3.0066,-3.0159,-3.017,-3.0165,-3.0159,-3.0172,-3.0173,-3.0191,-3.018,-3.0141,-3.0139,-3.0138,-3.0137,0,-2.9948,-2.9926,-3.0026,-3.0029,-3.0032,-3.0105,-3.0108,-3.0163,-3.0151,-3.0225,-3.024,-3.0222,-3.028,-3.0257,-3.0318,-3.0304,-3.0424,-3.0401,-3.0418,-3.0412,-3.0501,-3.0494,-3.0792,-3.0829,-3.0553,-3.0556,-3.0558,0,-3.0082,-3.0149,-3.016,-3.0194,-3.0206,-3.0262,-3.0293,-3.0256,-3.0291,-3.0318,-3.037,-3.0423,-3.0464,-3.056,-3.0553,-3.06,-3.0579,-3.068,-3.0586,-3.0596,-3.0583,-3.058,-3.0587,-3.07,-3.0703,-3.0706,-3.0708,0,-3.0324,-3.0309,-3.0356,-3.0399,-3.0437,-3.0469,-3.0496,-3.0527,-3.0492,-3.0533,-3.0592,-3.0624,-3.0686,-3.074,-3.0781,-3.0789,-3.0744,-3.0737,-3.076,-3.0775,-3.0782,-3.0781,-3.0471,-3.0731,-3.0729,-3.0727,-3.0726,-3.0725,-3.0503,-3.056,-3.0576,-3.0629,-3.0645,-3.0672,-3.0724,-3.0718,-3.0766,-3.0814,-3.0789,-3.0857,-3.0875,-3.0926,-3.0939,-3.0992,-3.0953,-3.0986,-3.0995,-3.1004,-3.1016,-3.0771,-3.0999,-3.0999,-3.0998,-3.0997,-3.0997,0,-3.0743,-3.0749,-3.0799,-3.0838,-3.0881,-3.0832,-3.0859,-3.0898,-3.0959,-3.0979,-3.102,-3.1087,-3.1138,-3.1134,-3.1182,-3.1225,-3.1205,-3.1239,-3.1237,-3.1239,-3.1048,-3.1024,-3.1254,-3.1254,-3.1254,-3.1254,-3.1254,-3.1254,-3.0873,-3.0966,-3.0954,-3.1055,-3.106,-3.1127,-3.1146,-3.117,-3.1186,-3.1264,-3.1306,-3.1303,-3.1313,-3.136,-3.1406,-3.1403,-3.1424,-3.1466,-3.1456,-3.1278,-3.1253,-3.1228,-3.1206,-3.147,-3.147,-3.1643,-3.1644,-3.1645]},{"header":{"parameterUnit":"m.s-1","parameterCategory":1,"la1":30.2991,"la2":30.254,"lo1":-89.0895,"lo2":-89.0444,"dy":0.0017,"dx":0.0017,"nx":28,"ny":28,"refTime":"2024-05-10T09:00:00:Z","depth":0,"parameterNumber":3,"parameterNumberName":"V-component_of_WINDS"},"data":[0,0,0,0,0,0,0,0,0,0,0,0,0,0,0,0,0,0,0,0,0,0,0,0,0,0,0,0,0,0,0,0,0,0,0,0,0,0,0,0,0,0,0,0,0,0,0,0,0,0,0,0,0,0,0,0,0,0,-5.2537,-5.2538,0,-5.2607,-5.2608,-5.2609,-5.2539,-5.2537,-5.2534,-5.2531,-5.2598,-5.2603,-5.2607,0,0,0,0,0,0,0,0,0,0,0,0,0,-5.2337,-5.2341,-5.2537,-5.2538,-5.2539,-5.2607,-5.2608,-5.2609,-5.254,-5.2537,-5.2533,-5.253,-5.2597,-5.2602,-5.2607,0,0,0,0,0,0,0,0,0,0,0,0,0,-5.2417,-5.2342,-5.2537,-5.2513,-5.2511,-5.2607,-5.2608,-5.2609,-5.2541,-5.2537,-5.2532,-5.2529,-5.2595,-5.2602,-5.2608,-5.273,0,0,-5.2628,-5.2631,0,0,0,0,0,0,0,0,-5.2413,-5.2425,-5.2515,-5.2515,-5.2513,-5.2561,-5.2562,-5.265,-5.2542,-5.2529,-5.2531,-5.2527,-5.2589,-5.2596,-5.2618,-5.2733,-5.2736,-5.2628,-5.2632,-5.2635,-5.2637,0,0,0,0,0,0,0,-5.2407,-5.2421,-5.2565,-5.2517,-5.2515,-5.2496,-5.2503,-5.2578,-5.2581,-5.253,-5.2525,-5.2535,-5.2587,-5.2612,-5.2619,-5.2737,-5.2628,-5.2634,-5.2638,-5.2641,-5.2953,-5.2957,0,0,0,0,0,0,-5.2405,-5.2417,-5.2563,-5.2567,-5.2452,-5.2503,-5.2511,-5.2549,-5.258,-5.2581,-5.2538,-5.2531,-5.2602,-5.2611,-5.2621,-5.2764,-5.2635,-5.2641,-5.2645,-5.2949,-5.2954,-5.2959,0,0,0,0,0,0,-5.2401,-5.2419,-5.256,-5.2491,-5.2507,-5.2511,-5.2555,-5.2553,-5.2577,-5.2586,-5.2586,-5.2563,-5.26,-5.2612,-5.2703,-5.2765,-5.2644,-5.265,-5.2944,-5.295,-5.2957,-5.3053,0,0,0,0,0,0,-5.2396,-5.2418,-5.2466,-5.2492,-5.2511,-5.2643,-5.2559,-5.2557,-5.2589,-5.2581,-5.2609,-5.261,-5.2597,-5.2694,-5.271,-5.2772,-5.2655,-5.2938,-5.2947,-5.2954,-5.3044,-5.3062,-5.3077,0,0,0,0,0,-5.2389,-5.2489,-5.2469,-5.2486,-5.2571,-5.2647,-5.2657,-5.2642,-5.2594,-5.2641,-5.2647,-5.2609,-5.2756,-5.2704,-5.2721,-5.2786,-5.2934,-5.2944,-5.2954,-5.3036,-5.3058,-5.3076,0,0,0,0,0,0,-5.2468,-5.2492,-5.247,-5.2582,-5.2613,-5.2635,-5.2694,-5.2666,-5.271,-5.27,-5.2678,-5.2685,-5.2781,-5.2793,-5.2734,-5.2905,-5.2837,-5.2851,-5.2894,-5.2915,-5.2931,-5.2926,-5.266,0,0,0,0,0,-5.2499,-5.256,-5.2577,-5.2675,-5.2692,-5.269,-5.2723,-5.2708,-5.2739,-5.2751,-5.2763,-5.2793,-5.2845,-5.2881,-5.293,-5.3045,-5.3049,-5.3098,-5.3115,-5.3128,-5.314,-5.32,-5.3222,-5.2992,-5.2991,-5.2991,0,0,-5.2563,-5.2584,-5.2623,-5.2691,-5.2713,-5.2775,-5.2702,-5.277,-5.2815,-5.2761,-5.2848,-5.2858,-5.2889,-5.2993,-5.3039,-5.3006,-5.3205,-5.3141,-5.3152,-5.3156,-5.3213,-5.3235,-5.3254,-5.2998,-5.2997,-5.2996,0,0,-5.2711,-5.2734,-5.2817,-5.2841,-5.2876,-5.2874,-5.2894,-5.292,-5.2925,-5.3013,-5.2973,-5.3025,-5.3117,-5.314,-5.3164,-5.332,-5.3286,-5.3336,-5.3422,-5.3481,-5.3499,-5.3515,-5.3569,-5.3589,-5.3348,-5.3349,-5.3349,0,-5.2785,-5.2879,-5.2862,-5.2934,-5.2964,-5.2919,-5.3001,-5.3025,-5.3074,-5.3095,-5.3057,-5.317,-5.3188,-5.3295,-5.3333,-5.3355,-5.3375,-5.3333,-5.3498,-5.3514,-5.3529,-5.358,-5.36,-5.3354,-5.3354,-5.3353,-5.3353,0,-5.2968,-5.3033,-5.3095,-5.3145,-5.3182,-5.3259,-5.3252,-5.3291,-5.3273,-5.3275,-5.3363,-5.3383,-5.3435,-5.346,-5.3443,-5.3565,-5.3542,-5.3502,-5.3433,-5.3557,-5.3604,-5.3624,-5.3363,-5.3361,-5.3359,-5.3357,0,0,-5.3168,-5.3208,-5.3231,-5.3252,-5.3287,-5.3336,-5.341,-5.3462,-5.3495,-5.3529,-5.3589,-5.3667,-5.363,-5.3657,-5.3642,-5.3694,-5.3814,-5.3646,-5.3647,-5.3676,-5.3947,-5.3977,-5.4,-5.3792,-5.3795,-5.3798,-5.3944,0,-5.3316,-5.3446,-5.3433,-5.3555,-5.3614,-5.3572,-5.3635,-5.3662,-5.3666,-5.3714,-5.3717,-5.3772,-5.3719,-5.3735,-5.3785,-5.3789,-5.3868,-5.3778,-5.3845,-5.3848,-5.3838,-5.4026,-5.4058,-5.4194,-5.3963,-5.3966,-5.3969,0,-5.3506,-5.3549,-5.3678,-5.3703,-5.3727,-5.3785,-5.3831,-5.3879,-5.3908,-5.3906,-5.3937,-5.3912,-5.3983,-5.3914,-5.4011,-5.3951,-5.3977,-5.3983,-5.3988,-5.3993,-5.3915,-5.4034,-5.4238,-5.4258,-5.3998,-5.3996,-5.3994,0,-5.3638,-5.3728,-5.3816,-5.3836,-5.3867,-5.3909,-5.3923,-5.3949,-5.398,-5.4019,-5.4039,-5.4086,-5.4111,-5.4147,-5.4135,-5.4086,-5.4234,-5.4164,-5.4233,-5.4233,-5.4266,-5.4264,-5.4475,-5.4285,-5.4284,-5.4284,-5.4283,0,-5.3804,-5.3884,-5.3875,-5.393,-5.4018,-5.4001,-5.4087,-5.4096,-5.4119,-5.4173,-5.4138,-5.4189,-5.417,-5.4219,-5.421,-5.4291,-5.4303,-5.4302,-5.4298,-5.4305,-5.4305,-5.4321,-5.4311,-5.4289,-5.4288,-5.4287,-5.4286,0,-5.3966,-5.3963,-5.4057,-5.4079,-5.4086,-5.415,-5.4168,-5.4218,-5.4218,-5.4286,-5.4301,-5.4301,-5.4357,-5.4349,-5.441,-5.4404,-5.4504,-5.449,-5.4495,-5.4492,-5.4561,-5.4554,-5.4789,-5.4819,-5.461,-5.4612,-5.4614,0,-5.4072,-5.4133,-5.4162,-5.4196,-5.4214,-5.4269,-5.4302,-5.4286,-5.4321,-5.4358,-5.4403,-5.4456,-5.4497,-5.4588,-5.4592,-5.4639,-5.4624,-5.4703,-5.4631,-5.4635,-5.4623,-5.462,-5.4625,-5.4717,-5.472,-5.4722,-5.4723,0,-5.4259,-5.4255,-5.4304,-5.4352,-5.4392,-5.4429,-5.4462,-5.4491,-5.4479,-5.4519,-5.4576,-5.4609,-5.4672,-5.4724,-5.4767,-5.478,-5.4749,-5.4746,-5.4764,-5.4771,-5.4771,-5.4771,-5.4533,-5.4741,-5.4739,-5.4738,-5.4737,-5.4736,-5.4395,-5.4447,-5.4475,-5.453,-5.4554,-5.4585,-5.4633,-5.464,-5.4688,-5.4739,-5.4727,-5.4791,-5.4816,-5.4872,-5.4889,-5.4938,-5.4908,-5.4935,-5.4941,-5.4948,-5.4956,-5.4765,-5.4945,-5.4945,-5.4944,-5.4944,-5.4944,0,-5.458,-5.4596,-5.4647,-5.4695,-5.4738,-5.4707,-5.4741,-5.4779,-5.4836,-5.4864,-5.4905,-5.497,-5.502,-5.5028,-5.5075,-5.5113,-5.51,-5.5125,-5.5122,-5.5125,-5.498,-5.4959,-5.5135,-5.5135,-5.5135,-5.5135,-5.5135,-5.5135,-5.4681,-5.4767,-5.4765,-5.4861,-5.4876,-5.494,-5.4962,-5.499,-5.5012,-5.5086,-5.5128,-5.5134,-5.5153,-5.5201,-5.5245,-5.5245,-5.5264,-5.5295,-5.529,-5.5155,-5.5135,-5.5117,-5.5097,-5.5299,-5.53,-5.5431,-5.5432,-5.5433]}]]